Lid_Strength_Index
5 6 9 9 7 6 5 4 4 5 4 4 6 3 2 0 -0 -1 -1 -1 -1 -1 -2 -1 -1 -1 -1 -1 -2 -2 -1 -1
6 7 7 7 6 5 5 4 4 4 6 4 2 2 1 -0 -0 -0 -0 -1 -1 -1 -2 -1 -1 -1 -1 -1 -2 -2 -1 -1
7 7 6 5 5 4 5 5 5 4 6 6 2 0 0 -0 -0 -0 -0 -1 -1 -2 -2 -1 -1 -1 -1 -1 -1 -1 -1 -1
8 7 6 5 4 4 5 4 5 5 6 5 1 1 0 -0 -0 -1 -0 -1 -1 -1 -2 -1 -1 -1 -1 -1 -1 -1 -1 -1
7 7 6 5 4 5 6 7 5 4 6 4 3 1 0 -0 -0 -1 -1 -1 -1 -1 -1 -2 -1 -1 -1 -1 -1 -1 -1 -1
6 7 7 5 5 4 6 6 3 3 6 6 3 1 0 -0 -0 -0 -0 -1 -1 -1 -1 -1 -1 -1 -1 -1 -1 -1 -1 -1
7 7 6 4 5 4 3 5 4 3 4 3 1 1 1 1 1 0 0 -0 -1 -1 -1 -1 -1 -1 -1 -1 -1 -1 -1 -1
5 4 6 5 5 5 5 6 5 4 3 2 1 1 2 2 2 1 1 0 -0 -1 -1 -1 -1 -1 -2 -1 -2 -2 -2 -2
5 4 4 5 6 4 6 7 6 6 4 3 2 2 2 2 1 1 0 -0 -0 -1 -1 -1 -1 -1 -1 -1 -1 -1 -2 -2
4 4 4 6 5 6 5 6 3 3 3 3 3 3 2 2 2 1 1 0 -0 -1 -1 -1 -1 -1 -2 -1 -1 -1 -1 -2
4 4 4 4 6 6 5 4 3 3 3 3 3 2 2 1 1 1 1 0 0 -1 -1 -1 -1 -1 -1 -1 -1 -1 -1 -2
4 4 4 5 6 5 5 3 4 5 6 6 6 5 3 4 4 3 2 2 2 0 1 -0 -1 -1 -1 -1 -1 -1 -1 -2
4 4 5 4 7 7 4 4 5 6 6 6 7 6 6 5 5 5 4 4 4 3 3 1 0 -1 -1 -1 -1 -1 -1 -2
5 5 4 6 10 7 5 5 6 7 7 7 7 7 7 6 6 5 5 4 4 4 4 3 1 0 -0 -1 -1 -1 -1 -2
7 4 5 6 9 7 6 7 7 7 7 7 7 8 7 7 6 6 5 5 5 5 5 5 3 2 -0 -1 -1 -1 -1 -1
8 6 5 6 8 7 6 7 8 7 7 8 8 8 8 7 7 7 6 6 6 6 6 5 5 4 0 2 2 0 1 1
7 5 6 7 8 7 7 7 8 8 8 8 8 8 8 7 7 7 7 6 6 6 6 7 7 7 6 6 3 5 4 5
7 6 6 7 8 7 7 8 8 8 8 9 8 8 8 7 7 7 7 7 6 6 6 6 6 6 6 5 7 7 7 5
8 7 6 7 9 8 7 7 8 8 8 8 9 9 8 8 8 7 7 7 6 5 5 5 5 5 5 5 5 5 5 6
7 9 10 7 11 9 7 7 7 8 8 8 8 8 8 8 7 7 7 6 5 5 5 5 4 4 4 6 6 6 6 5